sat.trackr.live / text

‹ back to catalog

STARLINK-5617

NORAD 55753 · 2023-028N

PAYLOAD ACTIVE UNKNOWN

§ Identity

Operator
Country
US
Launch date
2023-03-03
Launch site
AFWTR
Launch vehicle
Mass (kg)
RCS (m²)

Purposes: comms

External: N2YO · Heavens-Above · Gunter

§ Orbital elements

Epoch: 2026-09-20T22:00:03.000096Z

Period
95.65 min
Inclination
70.0009°
Eccentricity
0.0000404
Mean motion
15.05429350 rev/d
Perigee alt
549.9 km
Apogee alt
550.5 km
Semi-major
6,928.3 km
B*
4.7481e-3
RAAN
112.1280°
Arg perigee
330.3364°
Mean anomaly
107.3053°
Rev number
562

§ Raw data

STARLINK-56171 55753U 23028N   26263.91670139  .00068860  00000+0  47481-2 0  99982 55753  70.0009 112.1280 0000404 330.3364 107.3053 15.05429350  5624

JSON: /api/v1/satellites/55753 · /tle

For live sub-satellite position, see the globe view (requires WebGL).

§ Visibility from observer

Set your observer location to see the next 7 days of passes ≥ 10°. The values pass through the URL so the page stays shareable.

No JS? Fill the form by hand. The geolocation button needs JavaScript.